Date String (YYYY-MM-DD hh:mm:ss) UTC,Instrument flags,Ambient pressure (hPa),Sample flow (lpm),Bypass flow (lpm),Sample temperature (°C),Ambient temperature (°C),ASC tube jacket temperature (°C),LED temperature (°C),Box temperature (°C),Sample RH (%),Span deviation,Mass concentration (μg/m³),Mass concentration (μg/m³),Mass concentration (μg/m³)
DateTimeUTC,F1_M11,P_M11,Q1_M11,Q2_M11,T1_M11,T2_M11,T3_M11,T4_M11,T5_M11,U1_M11,ZSPAN_M11,X2_M11,X0_M11,X1_M11
2021-10-19 10:00:00,,0817.1,5.00,0.00,28.8,27.8,00.0,38.0,30.5,11.0,0000.0,0004.15,0016.61,0002.68
2021-10-19 10:01:00,,0817.1,5.01,0.00,28.8,27.8,00.0,38.0,30.5,11.0,0000.0,0004.14,0015.76,0002.67
2021-10-19 10:02:00,,0817.1,5.00,0.00,28.8,27.8,00.0,38.0,30.5,11.0,0000.0,0004.12,0015.47,0002.66
2021-10-19 10:03:00,,0817.1,4.99,0.00,28.8,27.8,00.0,38.0,30.6,10.9,0000.0,0004.16,0015.34,0002.66
2021-10-19 10:04:00,,0817.1,5.00,0.00,28.8,27.8,00.0,38.0,30.5,11.0,0000.0,0004.20,0014.99,0002.66
2021-10-19 10:05:00,,0817.1,5.00,0.00,28.8,27.8,00.0,38.0,30.5,11.0,0000.0,0004.21,0013.91,0002.64
2021-10-19 10:06:00,,0817.1,5.00,0.00,28.8,27.8,00.0,38.0,30.5,11.1,0000.0,0004.20,0013.33,0002.65
2021-10-19 10:07:00,,0817.1,5.01,0.00,28.8,27.8,00.0,38.0,30.5,11.1,0000.0,0004.18,0013.08,0002.65
2021-10-19 10:08:00,,0817.3,4.99,0.00,28.8,27.8,00.0,38.0,30.5,11.1,0000.0,0004.21,0013.62,0002.66
2021-10-19 10:09:00,,0817.1,5.02,0.00,28.8,27.8,00.0,38.0,30.5,11.1,0000.0,0004.26,0013.13,0002.65
2021-10-19 10:10:00,,0817.2,5.00,0.00,28.8,27.8,00.0,38.0,30.5,11.1,0000.0,0004.26,0012.99,0002.66
2021-10-19 10:11:00,,0817.2,5.00,0.00,28.8,27.8,00.0,38.0,30.5,11.1,0000.0,0004.31,0012.27,0002.67
2021-10-19 10:12:00,,0817.2,5.00,0.00,28.8,27.8,00.0,38.0,30.5,11.1,0000.0,0004.29,0012.10,0002.67
2021-10-19 10:13:00,,0817.1,5.00,0.00,28.8,27.8,00.0,38.0,30.5,11.1,0000.0,0004.31,0012.17,0002.69
2021-10-19 10:14:00,,0817.2,5.01,0.00,28.8,27.7,00.0,38.0,30.5,11.1,0000.0,0004.29,0011.98,0002.70
2021-10-19 10:15:00,,0817.2,5.01,0.00,28.8,27.7,00.0,38.0,30.5,11.2,0000.0,0004.21,0011.55,0002.70
2021-10-19 10:16:00,,0817.1,5.00,0.00,28.8,27.7,00.0,38.0,30.5,11.2,0000.0,0004.19,0011.59,0002.71
2021-10-19 10:17:00,,0817.2,5.01,0.00,28.8,27.7,00.0,38.0,30.5,11.2,0000.0,0004.21,0012.02,0002.71
2021-10-19 10:18:00,,0817.1,5.00,0.00,28.8,27.7,00.0,38.0,30.5,11.2,0000.0,0004.24,0011.88,0002.74
2021-10-19 10:19:00,,0817.1,4.99,0.00,28.8,27.7,00.0,38.0,30.5,11.2,0000.0,0004.24,0011.66,0002.74
2021-10-19 10:20:00,,0817.1,5.01,0.00,28.8,27.7,00.0,38.0,30.5,11.2,0000.0,0004.22,0011.36,0002.75
2021-10-19 10:21:00,,0817.2,4.99,0.00,28.7,27.7,00.0,37.9,30.5,11.3,0000.0,0004.21,0012.18,0002.77
2021-10-19 10:22:00,,0817.1,5.01,0.00,28.7,27.7,00.0,37.9,30.5,11.3,0000.0,0004.18,0012.67,0002.80
2021-10-19 10:23:00,,0817.1,5.00,0.00,28.7,27.7,00.0,37.9,30.4,11.4,0000.0,0004.20,0013.17,0002.82
2021-10-19 10:24:00,,0817.1,5.01,0.00,28.7,27.7,00.0,37.9,30.4,11.4,0000.0,0004.20,0012.96,0002.83
2021-10-19 10:25:00,,0817.1,4.99,0.00,28.7,27.6,00.0,37.9,30.4,11.6,0000.0,0004.25,0012.99,0002.87
2021-10-19 10:26:00,,0817.2,5.00,0.00,28.7,27.6,00.0,37.9,30.4,11.6,0000.0,0004.29,0013.34,0002.92
2021-10-19 10:27:00,,0817.2,4.99,0.00,28.7,27.6,00.0,37.9,30.4,11.5,0000.0,0004.32,0014.36,0002.95
2021-10-19 10:28:00,,0817.1,5.00,0.00,28.7,27.6,00.0,37.9,30.4,11.4,0000.0,0004.29,0014.29,0002.97
2021-10-19 10:29:00,,0817.2,5.01,0.00,28.7,27.6,00.0,37.9,30.4,11.5,0000.0,0004.30,0014.64,0002.97
2021-10-19 10:30:00,,0817.2,5.00,0.00,28.7,27.6,00.0,37.9,30.4,11.6,0000.0,0004.32,0015.44,0003.00
2021-10-19 10:31:00,,0817.2,5.00,0.00,28.7,27.6,00.0,37.9,30.4,11.6,0000.0,0004.37,0015.63,0003.05
2021-10-19 10:32:00,,0817.2,5.00,0.00,28.7,27.6,00.0,37.9,30.4,11.7,0000.0,0004.42,0014.96,0003.08
2021-10-19 10:33:00,,0817.3,5.01,0.00,28.7,27.6,00.0,37.9,30.4,11.7,0000.0,0004.47,0014.82,0003.10
2021-10-19 10:34:00,,0817.3,4.99,0.00,28.7,27.6,00.0,37.9,30.4,11.5,0000.0,0004.42,0014.44,0003.11
2021-10-19 10:35:00,,0817.2,5.01,0.00,28.7,27.6,00.0,37.9,30.4,11.5,0000.0,0004.41,0014.72,0003.12
2021-10-19 10:36:00,,0817.3,5.01,0.00,28.7,27.6,00.0,37.9,30.3,11.5,0000.0,0004.42,0014.65,0003.12
2021-10-19 10:37:00,,0817.2,5.01,0.00,28.7,27.5,00.0,37.9,30.4,11.5,0000.0,0004.42,0014.63,0003.11
2021-10-19 10:38:00,,0817.2,5.00,0.00,28.6,27.5,00.0,37.9,30.4,11.6,0000.0,0004.47,0014.20,0003.12
2021-10-19 10:39:00,,0817.2,5.00,0.00,28.6,27.5,00.0,37.8,30.3,11.6,0000.0,0004.53,0013.90,0003.14
2021-10-19 10:40:00,,0817.3,4.99,0.00,28.6,27.5,00.0,37.8,30.3,11.7,0000.0,0004.54,0013.45,0003.16
2021-10-19 10:41:00,,0817.3,5.00,0.00,28.6,27.5,00.0,37.8,30.3,11.8,0000.0,0004.62,0012.47,0003.16
2021-10-19 10:42:00,,0817.3,5.01,0.00,28.6,27.5,00.0,37.8,30.3,11.8,0000.0,0004.59,0012.39,0003.17
2021-10-19 10:43:00,,0817.3,5.00,0.00,28.6,27.5,00.0,37.8,30.3,11.9,0000.0,0004.57,0013.40,0003.18
2021-10-19 10:44:00,,0817.3,4.99,0.00,28.6,27.5,00.0,37.8,30.3,11.9,0000.0,0004.57,0014.32,0003.19
2021-10-19 10:45:00,,0817.3,5.00,0.00,28.6,27.5,00.0,37.8,30.3,11.9,0000.0,0004.65,0014.86,0003.21
2021-10-19 10:46:00,,0817.4,4.99,0.00,28.6,27.5,00.0,37.8,30.3,12.0,0000.0,0004.73,0014.83,0003.23
2021-10-19 10:47:00,,0817.3,5.00,0.00,28.6,27.5,00.0,37.8,30.3,12.0,0000.0,0004.78,0015.89,0003.25
2021-10-19 10:48:00,,0817.4,4.99,0.00,28.6,27.5,00.0,37.8,30.3,11.9,0000.0,0004.81,0016.08,0003.27
2021-10-19 10:49:00,,0817.3,4.99,0.00,28.6,27.5,00.0,37.8,30.3,11.7,0000.0,0004.79,0015.72,0003.29
2021-10-19 10:50:00,,0817.3,5.00,0.00,28.5,27.4,00.0,37.7,30.3,11.6,0000.0,0004.74,0016.11,0003.28
2021-10-19 10:51:00,,0817.3,5.01,0.00,28.5,27.4,00.0,37.7,30.2,11.8,0000.0,0004.78,0017.21,0003.29
2021-10-19 10:52:00,,0817.3,5.00,0.00,28.5,27.4,00.0,37.7,30.2,12.1,0000.0,0004.78,0017.93,0003.30
2021-10-19 10:53:00,,0817.3,4.99,0.00,28.5,27.4,00.0,37.7,30.2,12.1,0000.0,0004.82,0018.80,0003.32
2021-10-19 10:54:00,,0817.3,5.01,0.00,28.5,27.4,00.0,37.7,30.2,11.8,0000.0,0004.87,0018.37,0003.34
2021-10-19 10:55:00,,0817.4,5.01,0.00,28.5,27.4,00.0,37.7,30.2,11.6,0000.0,0004.86,0017.10,0003.33
2021-10-19 10:56:00,,0817.4,4.98,0.00,28.5,27.4,00.0,37.7,30.2,11.7,0000.0,0004.82,0017.04,0003.34
2021-10-19 10:57:00,,0817.4,5.01,0.00,28.5,27.4,00.0,37.7,30.2,11.7,0000.0,0004.74,0016.79,0003.33
2021-10-19 10:58:00,,0817.5,5.00,0.00,28.5,27.4,00.0,37.7,30.2,11.6,0000.0,0004.63,0016.09,0003.32
2021-10-19 10:59:00,,0817.5,5.00,0.00,28.5,27.4,00.0,37.7,30.1,11.7,0000.0,0004.62,0015.95,0003.30
